Wind_Speed
11 11 12 12 12 13 13 13 12 12 14 14 14 15 17 18 20 21 23 24 25 25 25 25 25 26 27 28 28 28 29 29 29 30 30 31 32 32 33 33 32 33 33 34
12 12 13 13 13 13 13 13 12 12 13 14 14 14 16 18 19 20 21 22 23 24 24 24 25 25 25 27 27 27 28 29 29 30 30 31 32 33 34 35 35 35 35 35
13 13 13 13 13 14 14 13 13 12 13 13 14 14 16 18 19 20 21 22 23 24 25 25 25 26 26 27 28 28 29 29 30 30 31 32 33 34 35 35 36 37 38 38
13 14 14 14 13 13 13 13 12 12 12 12 13 14 15 18 20 20 21 23 24 25 26 26 27 27 28 28 28 29 29 30 31 32 32 33 33 34 36 36 37 38 39 40
13 13 13 13 13 13 13 12 13 13 13 13 15 16 15 18 19 20 21 23 24 26 27 27 28 28 28 28 29 30 31 31 32 32 33 34 35 35 36 37 38 39 39 40
13 13 14 13 13 13 13 13 14 14 14 14 15 17 17 19 19 20 21 23 24 26 27 28 29 29 29 29 30 30 31 32 32 33 34 34 35 35 36 37 38 39 40 41
14 15 14 14 14 14 15 15 15 15 15 15 16 17 18 19 20 21 21 23 24 26 27 28 29 30 31 31 31 32 33 33 33 34 34 35 36 36 36 38 39 40 41 42
16 16 16 16 16 16 16 16 16 18 18 17 17 17 18 19 20 21 22 23 24 26 27 28 29 31 32 33 33 33 34 34 34 35 35 36 37 38 39 40 41 42 43 44
18 18 18 17 17 17 17 17 17 19 19 19 19 19 19 20 21 22 23 24 25 26 27 29 30 32 33 34 35 35 35 35 36 36 37 38 39 39 41 42 43 43 44 45
20 19 19 19 19 18 18 18 19 20 21 21 20 19 20 20 21 23 25 26 26 27 27 29 31 33 34 35 35 36 36 36 37 38 39 40 41 42 42 43 44 44 44 44
21 21 21 21 21 21 21 21 22 22 23 23 23 21 20 21 22 24 25 26 27 28 28 29 31 32 34 35 36 37 37 38 39 40 41 41 42 43 43 43 44 44 44 44
23 23 23 23 23 23 24 24 24 24 25 26 26 24 22 23 25 26 27 28 29 29 29 31 32 33 34 35 36 38 39 39 40 41 42 43 43 44 45 45 45 45 45 45
27 26 26 25 25 25 26 26 26 27 27 27 28 26 25 26 27 29 29 30 31 31 32 32 33 34 35 37 38 39 40 41 42 42 43 44 44 45 45 46 46 46 46 46
30 29 28 28 28 28 28 29 29 29 30 30 29 28 28 29 30 31 32 32 33 34 35 35 36 37 38 39 40 41 42 43 43 44 44 45 45 45 45 46 46 46 46 46
32 32 31 31 32 32 31 31 31 32 32 32 31 31 30 32 33 33 34 35 35 35 36 37 38 38 39 39 40 41 42 43 43 43 44 44 45 46 46 46 46 46 46 46
34 35 35 35 34 35 35 33 33 34 34 34 34 33 34 35 36 36 36 36 36 37 38 38 38 39 39 40 41 41 42 42 42 43 43 44 44 45 45 45 46 46 46 46
37 37 38 38 37 39 38 35 35 35 35 36 36 35 36 37 38 37 37 37 38 38 39 39 39 40 40 40 40 41 41 42 42 43 44 44 44 44 44 45 45 45 44 44
39 39 40 40 40 40 38 37 36 36 36 37 37 37 38 38 38 38 38 38 38 39 39 39 40 40 40 40 41 41 42 43 43 44 45 45 44 44 44 44 44 43 42 42
40 40 41 42 43 43 40 39 38 38 38 37 37 38 38 38 38 38 38 38 38 38 39 39 40 40 41 41 41 42 42 43 43 44 45 45 44 44 44 43 42 41 41 41
42 42 42 43 44 44 42 40 40 40 40 38 39 39 39 38 39 38 38 38 38 39 39 40 40 41 42 42 42 43 43 43 44 44 44 44 44 43 42 42 41 40 40 40
43 43 43 43 44 44 42 41 41 41 40 40 41 40 40 40 40 40 39 39 39 40 40 41 41 42 43 43 43 44 43 44 44 44 44 44 42 41 41 41 40 39 39 38
44 44 44 44 44 43 41 41 41 41 42 42 42 42 41 41 42 41 41 40 40 41 42 42 42 42 43 44 44 43 43 44 44 43 42 41 40 40 39 39 39 38 38 37
44 44 44 44 44 43 42 42 41 42 42 43 43 43 43 43 43 43 43 43 43 43 43 43 43 43 43 44 44 44 43 43 42 41 39 38 38 38 38 38 37 37 37 36
45 45 45 45 43 42 42 42 42 43 44 44 44 44 45 45 44 45 45 45 45 44 44 44 44 44 44 44 44 43 42 42 41 40 38 37 37 37 37 37 37 37 36 36
45 45 45 45 44 44 44 44 44 45 45 45 46 46 46 46 46 46 46 46 45 45 44 44 44 44 43 42 42 41 41 40 39 38 38 37 37 36 36 36 36 35 35 34
44 44 45 46 45 46 45 44 45 45 45 45 45 45 46 46 46 46 45 45 45 44 44 43 43 43 41 40 40 39 39 37 37 36 36 36 36 35 35 35 34 34 34 33
Wind_Direction
297 297 298 292 289 290 290 287 282 270 263 257 251 244 244 244 239 236 236 237 238 241 245 245 247 248 248 250 251 251 251 252 253 254 256 257 259 259 260 261 263 265 267 267
293 295 296 292 291 293 292 289 279 270 264 257 249 244 242 243 241 237 237 238 239 241 244 246 247 250 251 251 251 252 252 254 255 256 258 259 261 262 263 264 265 266 268 269
292 292 293 293 291 290 289 284 280 269 264 259 253 246 243 244 241 239 239 240 240 242 244 247 250 251 251 252 253 254 254 255 256 258 260 261 263 263 265 266 268 269 270 270
295 294 295 294 293 292 287 283 276 270 264 258 257 253 244 245 244 243 242 243 244 245 247 248 251 252 254 254 254 254 255 256 258 259 260 262 264 265 267 267 269 270 271 271
296 296 297 297 296 294 289 281 281 277 269 264 262 260 251 249 247 248 247 247 247 248 249 250 252 254 254 254 254 255 255 257 260 261 262 263 265 267 269 269 270 271 272 273
293 292 293 295 295 294 288 283 280 277 272 269 267 264 258 255 255 255 253 251 251 252 252 253 254 255 255 255 255 257 257 259 260 262 263 264 266 268 270 270 272 272 273 274
290 291 292 292 293 292 287 284 282 279 275 274 273 268 265 261 259 260 259 257 255 256 257 257 256 256 257 257 257 258 259 260 262 263 265 267 268 269 270 272 273 274 274 275
290 288 290 293 292 293 289 285 283 282 280 276 273 271 270 267 265 264 263 262 261 260 260 259 259 258 258 259 260 261 262 262 264 265 266 269 270 271 272 273 275 275 276 276
288 286 286 287 288 289 287 284 285 286 283 279 277 275 272 268 267 265 264 264 263 262 263 262 262 261 261 261 261 262 264 264 265 267 268 270 271 273 274 275 275 276 277 277
286 285 285 286 285 283 283 283 284 286 285 284 283 280 275 271 269 266 264 264 264 265 265 265 264 263 263 263 263 264 265 265 266 268 270 272 273 274 275 277 276 277 277 277
285 284 284 284 282 281 280 281 282 282 283 284 285 284 280 275 272 269 266 266 267 268 267 267 266 265 264 264 264 264 266 266 268 269 272 273 274 275 276 277 277 277 278 278
283 282 282 282 281 279 279 280 281 281 283 282 283 285 281 277 275 272 270 270 270 270 270 269 269 268 267 266 266 267 268 268 270 271 272 274 275 276 276 277 278 278 279 279
281 280 281 280 280 279 278 279 280 280 280 280 280 283 282 279 276 274 273 273 273 272 272 272 272 272 270 270 270 271 271 271 272 273 274 274 275 276 277 277 278 279 279 280
280 279 280 281 281 280 278 278 278 278 279 279 280 280 279 278 277 276 276 274 274 273 273 273 273 273 272 272 273 273 274 274 274 275 275 275 276 277 277 277 278 279 279 280
278 278 278 279 279 279 278 279 279 278 278 279 280 279 278 277 278 278 277 276 276 276 276 275 275 275 275 274 275 275 275 276 276 276 277 277 277 277 278 278 279 280 280 280
278 278 277 277 278 278 278 280 280 278 278 278 278 278 277 278 279 279 278 277 277 277 277 277 277 277 277 277 277 277 277 277 277 277 278 278 279 279 279 279 280 281 281 280
278 279 279 278 278 277 279 281 280 280 278 277 278 278 277 278 279 280 279 278 277 278 278 278 278 278 278 278 278 278 277 277 278 278 278 279 279 279 279 280 281 281 281 280
279 279 279 279 279 279 281 280 280 279 278 278 278 278 277 278 279 279 279 279 279 278 279 279 279 279 279 278 279 279 278 278 279 280 280 280 279 279 280 281 281 280 281 281
278 278 278 278 278 279 280 281 280 279 278 277 277 277 277 278 278 279 280 280 279 278 278 278 279 279 279 280 279 279 280 280 280 280 280 280 280 279 280 280 280 281 281 281
277 277 278 278 279 280 281 280 279 278 277 276 276 276 276 277 278 278 279 279 279 278 279 278 278 279 280 280 280 281 281 281 281 281 281 280 280 280 280 280 280 281 281 280
276 276 277 277 277 278 280 279 278 278 278 276 276 276 277 277 278 278 279 279 280 279 279 279 279 280 281 281 282 282 281 282 282 282 281 281 280 281 281 281 281 281 281 280
276 276 276 275 275 277 277 276 276 276 275 275 275 276 276 276 277 278 279 279 279 280 280 280 280 281 282 282 283 283 282 282 283 282 282 281 280 280 280 281 281 281 281 281
276 276 276 275 275 275 275 275 274 274 274 274 275 275 275 276 277 278 278 279 279 280 281 281 281 282 283 284 284 283 282 282 282 281 280 279 279 279 280 281 281 281 281 280
274 274 274 274 274 273 272 271 271 272 273 274 274 275 275 276 277 277 278 279 280 280 280 281 282 282 283 283 283 282 282 282 280 279 278 278 279 279 280 280 281 280 280 279
275 275 274 273 273 271 269 270 271 272 273 274 275 276 276 276 277 277 279 280 281 281 280 281 282 283 283 283 283 282 282 281 279 277 277 278 278 279 279 280 280 279 279 278
276 276 274 273 272 271 270 270 271 272 273 274 274 275 276 277 277 278 280 281 281 282 281 281 281 282 282 282 283 283 282 281 279 278 277 277 277 277 278 278 277 277 277 276
Height
5713 5713 5711 5711 5710 5710 5709 5709 5708 5709 5709 5711 5712 5715 5716 5718 5720 5723 5726 5729 5732 5734 5736 5739 5741 5743 5745 5747 5749 5750 5752 5754 5755 5756 5758 5759 5760 5761 5761 5762 5763 5764 5765 5765
5713 5712 5711 5709 5708 5708 5707 5707 5707 5707 5707 5709 5710 5712 5713 5715 5717 5719 5722 5724 5727 5730 5732 5734 5736 5738 5740 5741 5743 5745 5746 5747 5749 5750 5751 5752 5753 5754 5754 5755 5755 5756 5757 5757
5711 5711 5709 5708 5707 5707 5706 5706 5705 5706 5706 5706 5708 5710 5711 5712 5714 5716 5718 5720 5723 5725 5727 5729 5731 5733 5734 5736 5737 5739 5740 5741 5742 5743 5744 5745 5746 5746 5747 5747 5747 5748 5748 5748
5709 5708 5707 5706 5705 5705 5704 5704 5704 5704 5704 5705 5706 5707 5709 5709 5711 5712 5715 5717 5719 5721 5723 5724 5726 5727 5729 5730 5731 5732 5733 5734 5735 5736 5737 5738 5738 5738 5739 5739 5739 5739 5739 5739
5707 5706 5705 5704 5704 5703 5702 5702 5702 5702 5702 5703 5704 5704 5707 5706 5707 5709 5711 5713 5714 5716 5717 5718 5720 5721 5722 5724 5725 5725 5726 5728 5729 5729 5730 5730 5730 5730 5730 5730 5730 5730 5730 5730
5705 5704 5704 5703 5701 5701 5700 5700 5700 5699 5700 5701 5702 5702 5704 5704 5705 5706 5707 5708 5709 5710 5712 5713 5714 5715 5716 5717 5718 5719 5719 5720 5721 5722 5722 5722 5722 5722 5722 5722 5722 5721 5721 5720
5703 5702 5701 5700 5699 5699 5698 5698 5697 5696 5696 5698 5698 5698 5700 5700 5701 5701 5702 5703 5704 5705 5706 5707 5708 5709 5709 5710 5711 5712 5712 5712 5713 5713 5714 5714 5714 5714 5713 5713 5712 5712 5711 5710
5700 5700 5699 5697 5697 5696 5695 5695 5695 5694 5693 5694 5694 5694 5696 5696 5696 5696 5697 5698 5698 5699 5700 5700 5701 5701 5702 5703 5703 5704 5704 5704 5705 5705 5705 5705 5705 5704 5704 5703 5702 5702 5701 5700
5696 5696 5695 5694 5693 5693 5692 5691 5691 5690 5689 5690 5690 5691 5691 5691 5690 5691 5691 5692 5692 5693 5693 5693 5694 5694 5694 5695 5695 5695 5696 5696 5696 5696 5696 5696 5696 5695 5694 5693 5692 5691 5690 5689
5692 5692 5691 5690 5689 5688 5688 5687 5687 5685 5684 5684 5685 5685 5686 5685 5685 5685 5685 5685 5685 5686 5686 5686 5686 5686 5686 5687 5687 5687 5687 5687 5687 5687 5686 5686 5685 5684 5683 5682 5681 5679 5678 5677
5687 5687 5687 5686 5685 5684 5684 5683 5681 5680 5680 5679 5679 5682 5680 5679 5679 5679 5678 5678 5678 5679 5679 5679 5678 5678 5678 5678 5678 5678 5677 5677 5677 5676 5676 5675 5674 5673 5672 5671 5669 5668 5666 5665
5682 5681 5681 5680 5679 5678 5677 5677 5676 5676 5675 5673 5672 5677 5674 5673 5672 5671 5671 5671 5671 5671 5671 5670 5670 5669 5669 5668 5668 5668 5667 5667 5666 5666 5665 5664 5663 5661 5660 5659 5657 5656 5654 5653
5675 5675 5674 5674 5675 5673 5671 5670 5669 5669 5668 5667 5666 5671 5667 5666 5664 5663 5663 5663 5662 5662 5662 5661 5660 5660 5659 5658 5658 5657 5657 5656 5655 5654 5653 5652 5651 5649 5648 5646 5645 5644 5642 5640
5668 5668 5668 5668 5666 5665 5665 5664 5663 5661 5660 5660 5660 5661 5660 5658 5656 5655 5655 5654 5654 5653 5652 5652 5651 5650 5649 5648 5647 5646 5646 5644 5643 5642 5641 5640 5638 5637 5635 5634 5632 5631 5629 5628
5660 5660 5660 5659 5658 5657 5657 5657 5655 5653 5653 5652 5653 5652 5652 5648 5647 5647 5646 5645 5645 5644 5643 5642 5640 5639 5638 5637 5636 5635 5634 5633 5632 5630 5629 5627 5625 5624 5622 5621 5619 5618 5616 5614
5652 5651 5651 5651 5650 5648 5648 5649 5647 5645 5644 5643 5642 5643 5642 5639 5638 5637 5636 5635 5635 5633 5632 5631 5630 5629 5627 5626 5625 5623 5622 5621 5620 5618 5617 5615 5613 5611 5609 5608 5606 5605 5603 5601
5643 5642 5640 5640 5640 5638 5639 5641 5638 5636 5635 5634 5633 5634 5631 5630 5629 5627 5626 5625 5624 5623 5622 5620 5619 5618 5616 5615 5613 5612 5610 5609 5608 5606 5604 5602 5600 5598 5596 5595 5593 5591 5590 5588
5634 5632 5630 5629 5629 5628 5633 5630 5628 5626 5625 5624 5623 5622 5621 5620 5619 5617 5615 5614 5613 5612 5611 5609 5608 5606 5605 5603 5601 5600 5598 5597 5595 5593 5591 5589 5587 5585 5583 5582 5580 5579 5577 5576
5623 5622 5619 5618 5616 5617 5621 5620 5617 5615 5615 5614 5612 5611 5610 5609 5608 5607 5605 5603 5602 5601 5599 5598 5596 5595 5593 5591 5590 5588 5586 5585 5583 5580 5578 5576 5574 5573 5571 5569 5568 5566 5565 5564
5612 5611 5610 5607 5605 5605 5610 5607 5605 5604 5603 5603 5601 5600 5599 5598 5598 5598 5595 5593 5591 5589 5588 5586 5585 5583 5581 5579 5578 5576 5574 5572 5570 5568 5565 5563 5562 5560 5559 5557 5556 5554 5553 5551
5601 5599 5598 5596 5593 5594 5597 5594 5593 5593 5593 5590 5589 5588 5588 5587 5586 5586 5584 5582 5580 5578 5576 5575 5573 5571 5569 5567 5565 5564 5561 5560 5557 5555 5552 5551 5549 5548 5546 5545 5544 5542 5541 5540
5588 5587 5586 5584 5582 5585 5584 5582 5581 5580 5578 5577 5576 5576 5575 5575 5574 5573 5572 5570 5568 5566 5565 5562 5561 5559 5557 5554 5552 5551 5549 5547 5544 5542 5540 5538 5537 5535 5534 5533 5532 5531 5530 5529
5575 5575 5573 5572 5574 5572 5570 5569 5568 5567 5566 5565 5564 5564 5563 5562 5562 5561 5559 5558 5556 5554 5552 5550 5548 5547 5544 5542 5539 5538 5536 5533 5531 5529 5528 5526 5525 5524 5523 5522 5521 5520 5519 5518
5563 5561 5559 5559 5560 5559 5558 5556 5555 5554 5553 5552 5552 5551 5550 5549 5549 5548 5546 5545 5543 5542 5540 5537 5536 5534 5532 5529 5527 5525 5523 5521 5519 5518 5516 5515 5514 5513 5512 5511 5510 5509 5508 5507
5550 5548 5546 5545 5547 5545 5545 5544 5543 5541 5540 5540 5539 5538 5537 5536 5535 5534 5533 5532 5530 5528 5526 5524 5522 5521 5519 5517 5515 5512 5510 5508 5507 5506 5505 5504 5503 5502 5501 5500 5499 5498 5497 5496
5538 5535 5533 5532 5533 5530 5531 5531 5530 5528 5527 5527 5526 5525 5524 5522 5522 5521 5520 5519 5517 5515 5513 5511 5510 5508 5506 5504 5503 5501 5498 5496 5495 5494 5493 5492 5492 5491 5490 5489 5488 5487 5487 5486